Location: Hamilton
(37.7830°S, 175.2830°E)
Time: 18:35:05
(UTC+13:00)

Meteor 2-21 - Pass Details

Date: 24 January 2019
Orbit: 933 x 967 km, 82.5° (Epoch: 22 February)

Event Time Altitude Azimuth Distance (km) Brightness Sun altitude
Exits shadow 23:43:31 64° 92° (E) 1,039 4.4 -27.7°
Drops below altitude 10° 23:49:27 10° 166° (SSE) 2,674 7.4 -28.2°
Sets 23:51:58 0° 169° (S) 3,627 8.2 -28.4°
